W8UFO-13 Weather Reports


Display with metric or nautical units.
time (UTC)temp
F
wind
direction
speed
MPH
gust
MPH
rain 1hr
in
rain 24hr
in
rain mn
in
humidity
%
barometer
mb
20260503211917 69 248 1.0 2.0 0.00 0.00 0.00 43 1019.1
20260503211417 69 0.0 1.0 0.00 0.00 0.00 41 1019.2
20260503210917 68 248 1.0 2.0 0.00 0.00 0.00 42 1019.1
20260503210417 68 293 3.0 6.0 0.00 0.00 0.00 39 1019.2
20260503205917 69 158 1.0 2.0 0.00 0.00 0.00 44 1019.1
20260503205416 68 225 1.0 1.0 0.00 0.00 0.00 42 1019.3
20260503204917 68 0.0 1.0 0.00 0.00 0.00 46 1019.5
20260503204416 68 225 2.0 4.0 0.00 0.00 0.00 41 1019.6
20260503203917 69 113 1.0 2.0 0.00 0.00 0.00 43 1019.6
20260503203417 69 135 1.0 1.0 0.00 0.00 0.00 44 1019.6
20260503202917 68 0 1.0 3.0 0.00 0.00 0.00 45 1019.8
20260503202417 68 270 2.0 3.0 0.00 0.00 0.00 43 1019.8
20260503201917 68 293 1.0 2.0 0.00 0.00 0.00 41 1019.8
20260503201416 68 225 1.0 2.0 0.00 0.00 0.00 44 1019.9
20260503200916 68 338 1.0 2.0 0.00 0.00 0.00 42 1020.1
20260503200417 68 225 2.0 5.0 0.00 0.00 0.00 44 1020.3
20260503195917 68 248 1.0 2.0 0.00 0.00 0.00 42 1020.3
20260503195416 68 90 1.0 2.0 0.00 0.00 0.00 46 1020.3
20260503194917 68 158 1.0 1.0 0.00 0.00 0.00 41 1020.2
20260503194416 67 225 1.0 2.0 0.00 0.00 0.00 43 1020.3
20260503193917 67 90 1.0 2.0 0.00 0.00 0.00 44 1020.7
20260503193416 67 270 1.0 2.0 0.00 0.00 0.00 45 1020.7
20260503192917 67 270 1.0 2.0 0.00 0.00 0.00 43 1020.8
20260503192417 66 180 1.0 2.0 0.00 0.00 0.00 45 1020.7
20260503191917 65 0.0 0.0 0.00 0.00 0.00 42 1020.9
20260503191416 66 203 3.0 5.0 0.00 0.00 0.00 44 1020.9
20260503190916 66 135 2.0 3.0 0.00 0.00 0.00 42 1021.0
20260503190416 66 203 1.0 4.0 0.00 0.00 0.00 44 1020.9
20260503185916 65 0.0 1.0 0.00 0.00 0.00 43 1021.0
20260503185416 65 248 3.0 5.0 0.00 0.00 0.00 43 1020.9
20260503184916 65 225 2.0 5.0 0.00 0.00 0.00 45 1021.0
20260503184417 65 0.0 1.0 0.00 0.00 0.00 45 1021.0
20260503183917 65 90 2.0 5.0 0.00 0.00 0.00 44 1021.2
20260503183416 65 225 2.0 4.0 0.00 0.00 0.00 47 1021.3
20260503182917 65 135 2.0 6.0 0.00 0.00 0.00 44 1021.2
20260503182416 65 68 1.0 2.0 0.00 0.00 0.00 47 1021.5
20260503181917 66 248 2.0 5.0 0.00 0.00 0.00 45 1021.7
20260503181417 66 248 1.0 2.0 0.00 0.00 0.00 48 1021.6
20260503180917 65 90 1.0 2.0 0.00 0.00 0.00 47 1021.6
20260503180416 64 248 1.0 2.0 0.00 0.00 0.00 46 1021.7
20260503175917 64 135 1.0 2.0 0.00 0.00 0.00 42 1021.8
20260503175416 64 293 2.0 3.0 0.00 0.00 0.00 45 1021.9
20260503174916 65 113 1.0 2.0 0.00 0.00 0.00 45 1021.9
20260503174416 65 248 1.0 2.0 0.00 0.00 0.00 43 1022.0
20260503173916 64 135 1.0 2.0 0.00 0.00 0.00 50 1022.1
20260503173416 62 135 1.0 3.0 0.00 0.00 0.00 45 1022.0
20260503172916 62 68 3.0 4.0 0.00 0.00 0.00 46 1022.1
20260503172416 63 0.0 1.0 0.00 0.00 0.00 45 1022.2
20260503171916 63 225 2.0 4.0 0.00 0.00 0.00 45 1022.4
20260503171416 62 0.0 1.0 0.00 0.00 0.00 51 1022.4
20260503170917 62 180 1.0 2.0 0.00 0.00 0.00 42 1022.5
20260503170416 63 180 3.0 5.0 0.00 0.00 0.00 44 1022.6
20260503150916 56 248 1.0 1.0 0.00 0.00 0.00 54 1023.3
20260503150416 56 203 1.0 2.0 0.00 0.00 0.00 51 1023.4
20260503131416 54 0.0 0.0 0.00 0.00 0.00 70 1023.0
20260503130916 52 90 1.0 2.0 0.00 0.00 0.00 66 1023.1
20260503130416 52 0.0 1.0 0.00 0.00 0.00 68 1023.1
20260503110416 41 0.0 0.0 0.00 0.00 0.00 88 1021.7
20260503090416 41 0.0 0.0 0.00 0.00 0.00 86 1021.0
20260503081416 43 0.0 0.0 0.00 0.00 0.00 84 1020.7
20260503080916 43 0.0 0.0 0.00 0.00 0.00 84 1020.6
20260503080416 44 0.0 0.0 0.00 0.00 0.00 84 1020.5
20260503072916 45 0.0 0.0 0.00 0.00 0.00 81 1020.3
20260503072416 45 0.0 0.0 0.00 0.00 0.00 81 1020.3
20260503071916 45 0.0 0.0 0.00 0.00 0.00 81 1020.2
20260503071416 45 0.0 1.0 0.00 0.00 0.00 82 1020.2
20260503070916 45 0.0 0.0 0.00 0.00 0.00 81 1020.0
20260503070416 45 0.0 0.0 0.00 0.00 0.00 80 1020.1
20260503054916 49 0.0 0.0 0.00 0.00 0.00 75 1019.9
20260503054415 49 0.0 0.0 0.00 0.00 0.00 74 1019.8
20260503053916 49 0.0 0.0 0.00 0.00 0.00 74 1019.8
20260503053416 49 0.0 0.0 0.00 0.00 0.00 74 1019.7
20260503052916 49 0.0 0.0 0.00 0.00 0.00 73 1019.6
20260503052416 49 0.0 0.0 0.00 0.00 0.00 73 1019.7
20260503051915 49 0.0 0.0 0.00 0.00 0.00 73 1019.7
20260503051416 49 0.0 0.0 0.00 0.00 0.00 73 1019.6
20260503050916 49 0.0 0.0 0.00 0.00 0.00 74 1019.7
20260503050416 49 0.0 0.0 0.00 0.00 0.00 74 1019.7
20260503045916 49 0.0 0.0 0.00 0.00 0.00 75 1019.6
20260503045416 49 0.0 0.0 0.00 0.00 0.00 75 1019.6
20260503044916 48 0.0 0.0 0.00 0.00 0.00 75 1019.6
20260503044415 48 0.0 0.0 0.00 0.00 0.00 74 1019.6
20260503043915 48 0.0 0.0 0.00 0.00 0.00 74 1019.6
20260503043416 49 0.0 0.0 0.00 0.00 0.00 73 1019.6
20260503042916 49 0.0 0.0 0.00 0.00 0.00 73 1019.5
20260503042415 50 0.0 0.0 0.00 0.00 0.00 71 1019.4
20260503041916 50 0.0 0.0 0.00 0.00 0.00 70 1019.5
20260503041416 50 0.0 0.0 0.00 0.00 0.00 70 1019.4
20260503040915 51 0.0 0.0 0.00 0.00 0.00 69 1019.4
20260503040416 51 0.0 0.0 0.00 0.00 0.00 68 1019.3
20260503035917 52 0.0 0.0 0.00 0.00 0.00 68 1019.3
20260503035417 52 0.0 0.0 0.00 0.00 0.00 67 1019.3
20260503034917 52 0.0 0.0 0.00 0.00 0.00 68 1019.3
20260503034417 52 0.0 0.0 0.00 0.00 0.00 67 1019.2
20260503033917 52 0.0 0.0 0.00 0.00 0.00 67 1019.2
20260503033417 52 0.0 1.0 0.00 0.00 0.00 68 1019.2
20260503032917 52 0.0 0.0 0.00 0.00 0.00 66 1019.0
20260503032417 53 0.0 0.0 0.00 0.00 0.00 67 1019.0
20260503031917 53 0.0 0.0 0.00 0.00 0.00 67 1019.1
20260503031417 52 0.0 0.0 0.00 0.00 0.00 67 1019.0
20260503030917 52 0.0 0.0 0.00 0.00 0.00 68 1019.1
20260503030417 52 0.0 0.0 0.00 0.00 0.00 67 1019.1
20260503025917 52 0.0 0.0 0.00 0.00 0.00 67 1019.0
20260503025417 52 0.0 0.0 0.00 0.00 0.00 68 1018.9
20260503024917 52 0.0 0.0 0.00 0.00 0.00 68 1018.8
20260503024417 52 0.0 0.0 0.00 0.00 0.00 68 1018.7
20260503023917 52 0.0 0.0 0.00 0.00 0.00 68 1018.6
20260503023417 52 0.0 0.0 0.00 0.00 0.00 67 1018.6
20260503022917 52 0.0 0.0 0.00 0.00 0.00 67 1018.4
20260503022417 52 0.0 0.0 0.00 0.00 0.00 68 1018.5
20260503021916 52 0.0 0.0 0.00 0.00 0.00 68 1018.4
20260503021416 52 0.0 0.0 0.00 0.00 0.00 67 1018.3
20260503020917 52 0.0 0.0 0.00 0.00 0.00 68 1018.3
20260503020417 51 0.0 0.0 0.00 0.00 0.00 68 1018.3
20260503015917 51 0.0 0.0 0.00 0.00 0.00 68 1018.1
20260503015416 51 0.0 0.0 0.00 0.00 0.00 68 1018.0
20260503014916 51 0.0 0.0 0.00 0.00 0.00 68 1018.0
20260503014417 52 0.0 0.0 0.00 0.00 0.00 68 1017.9
20260503013917 52 0.0 0.0 0.00 0.00 0.00 68 1017.9
20260503013417 51 0.0 0.0 0.00 0.00 0.00 68 1017.9
20260503012917 51 0.0 0.0 0.00 0.00 0.00 68 1017.8
20260503012417 51 0.0 0.0 0.00 0.00 0.00 68 1017.7
20260503011917 51 0.0 0.0 0.00 0.00 0.00 68 1017.7
20260503011417 51 0.0 0.0 0.00 0.00 0.00 67 1017.7
20260503010916 52 0.0 0.0 0.00 0.00 0.00 66 1017.7
20260503010417 52 0.0 0.0 0.00 0.00 0.00 66 1017.5
20260503005916 52 0.0 0.0 0.00 0.00 0.00 66 1017.5
20260503005417 52 0.0 0.0 0.00 0.00 0.00 65 1017.5
20260503004917 53 0.0 0.0 0.00 0.00 0.00 64 1017.4
20260503004417 53 0.0 0.0 0.00 0.00 0.00 62 1017.3
20260503003917 54 0.0 0.0 0.00 0.00 0.00 62 1017.2
20260503003416 54 0.0 0.0 0.00 0.00 0.00 61 1017.0
20260503002917 54 0.0 0.0 0.00 0.00 0.00 60 1017.0
20260503002417 55 0.0 0.0 0.00 0.00 0.00 61 1016.9
20260503001916 55 0.0 0.0 0.00 0.00 0.00 60 1016.9
20260503001417 56 0.0 0.0 0.00 0.00 0.00 58 1016.8
20260503000916 56 0.0 0.0 0.00 0.00 0.00 57 1016.7
20260503000416 57 0.0 0.0 0.00 0.00 0.00 57 1016.7
20260502235917 57 0.0 1.0 0.00 0.00 0.00 56 1016.6
20260502235417 58 0.0 6.0 0.00 0.00 0.00 55 1016.6
20260502234917 58 0.0 0.0 0.00 0.00 0.00 55 1016.5
20260502234417 58 0.0 1.0 0.00 0.00 0.00 54 1016.5
20260502233917 59 0.0 0.0 0.00 0.00 0.00 54 1016.4
20260502233417 59 0.0 0.0 0.00 0.00 0.00 51 1016.4
20260502232916 59 0.0 0.0 0.00 0.00 0.00 52 1016.3
20260502232416 60 0.0 1.0 0.00 0.00 0.00 53 1016.4
20260502231916 60 0.0 0.0 0.00 0.00 0.00 52 1016.4
20260502231417 60 248 1.0 2.0 0.00 0.00 0.00 52 1016.3
20260502230917 60 0.0 0.0 0.00 0.00 0.00 52 1016.2
20260502230416 60 0.0 1.0 0.00 0.00 0.00 51 1016.3
20260502225917 61 0.0 0.0 0.00 0.00 0.00 52 1016.3
20260502225416 61 0.0 1.0 0.00 0.00 0.00 49 1016.3
20260502224917 61 248 1.0 2.0 0.00 0.00 0.00 49 1016.2
20260502224416 62 0.0 1.0 0.00 0.00 0.00 49 1016.3
20260502223916 62 0.0 0.0 0.00 0.00 0.00 46 1016.3
20260502223416 62 0.0 0.0 0.00 0.00 0.00 50 1016.3
20260502222917 62 0.0 1.0 0.00 0.00 0.00 49 1016.2
20260502222417 62 0.0 2.0 0.00 0.00 0.00 48 1016.2
20260502221916 63 45 1.0 1.0 0.00 0.00 0.00 46 1016.2
20260502221416 64 0.0 1.0 0.00 0.00 0.00 48 1016.1
20260502220916 64 180 1.0 2.0 0.00 0.00 0.00 45 1016.1
20260502220416 63 0.0 1.0 0.00 0.00 0.00 48 1015.9
20260502215917 64 113 1.0 3.0 0.00 0.00 0.00 46 1016.0
20260502215416 64 113 1.0 3.0 0.00 0.00 0.00 43 1015.9
20260502214916 64 0.0 0.0 0.00 0.00 0.00 48 1015.8
20260502214417 63 0.0 1.0 0.00 0.00 0.00 47 1015.8
20260502213917 64 0.0 1.0 0.00 0.00 0.00 44 1015.8
20260502213417 65 0.0 1.0 0.00 0.00 0.00 44 1015.8
20260502212916 65 135 1.0 3.0 0.00 0.00 0.00 45 1015.8
20260502212416 64 0.0 1.0 0.00 0.00 0.00 46 1015.7